TimeEDT,TemperatureF,Dew PointF,Humidity,Sea Level PressureIn,VisibilityMPH,Wind Direction,Wind SpeedMPH,Gust SpeedMPH,PrecipitationIn,Events,Conditions,WindDirDegrees,DateUTC
12:54 AM,44.1,41.0,89,30.10,9.0,Calm,Calm,-,0.03,Rain,Light Rain,0,2012-10-08 04:54:00
1:54 AM,43.0,39.9,89,30.11,10.0,Calm,Calm,-,0.01,,Overcast,0,2012-10-08 05:54:00
2:54 AM,43.0,39.9,89,30.10,10.0,Calm,Calm,-,N/A,,Overcast,0,2012-10-08 06:54:00
3:54 AM,43.0,39.9,89,30.10,10.0,East,3.5,-,N/A,,Overcast,90,2012-10-08 07:54:00
4:54 AM,43.0,39.9,89,30.12,10.0,Calm,Calm,-,N/A,,Overcast,0,2012-10-08 08:54:00
5:54 AM,44.1,39.9,85,30.14,10.0,Calm,Calm,-,N/A,,Overcast,0,2012-10-08 09:54:00
6:54 AM,43.0,41.0,93,30.16,10.0,ENE,3.5,-,0.04,,Overcast,70,2012-10-08 10:54:00
7:54 AM,44.6,41.0,87,30.19,10.0,Calm,Calm,-,N/A,,Mostly Cloudy,0,2012-10-08 11:54:00
8:26 AM,44.6,42.8,93,30.20,10.0,Calm,Calm,-,N/A,,Mostly Cloudy,0,2012-10-08 12:26:00
8:54 AM,45.0,41.0,86,30.22,10.0,Calm,Calm,-,N/A,,Mostly Cloudy,0,2012-10-08 12:54:00
9:08 AM,46.4,42.8,87,30.22,10.0,Calm,Calm,-,N/A,,Mostly Cloudy,0,2012-10-08 13:08:00
9:15 AM,46.4,42.8,87,30.22,10.0,Calm,Calm,-,N/A,,Scattered Clouds,0,2012-10-08 13:15:00
9:54 AM,48.9,41.0,74,30.23,10.0,NNW,4.6,-,N/A,,Mostly Cloudy,340,2012-10-08 13:54:00
10:11 AM,46.4,39.2,76,30.23,10.0,West,3.5,-,N/A,,Scattered Clouds,280,2012-10-08 14:11:00
10:54 AM,50.0,37.0,61,30.24,10.0,Calm,Calm,-,N/A,,Scattered Clouds,0,2012-10-08 14:54:00
11:54 AM,51.1,35.1,54,30.25,10.0,Variable,3.5,-,N/A,,Mostly Cloudy,0,2012-10-08 15:54:00
12:54 PM,53.1,34.0,48,30.25,10.0,Variable,3.5,-,N/A,,Scattered Clouds,0,2012-10-08 16:54:00
1:54 PM,55.0,32.0,42,30.23,10.0,Calm,Calm,-,N/A,,Scattered Clouds,0,2012-10-08 17:54:00
2:54 PM,55.9,30.0,37,30.23,10.0,Calm,Calm,-,N/A,,Scattered Clouds,0,2012-10-08 18:54:00
3:54 PM,55.9,33.1,42,30.23,10.0,Variable,4.6,-,N/A,,Partly Cloudy,0,2012-10-08 19:54:00
4:54 PM,55.0,30.0,38,30.23,10.0,South,4.6,-,N/A,,Scattered Clouds,180,2012-10-08 20:54:00
5:54 PM,53.1,33.1,47,30.24,10.0,SSE,4.6,-,N/A,,Clear,160,2012-10-08 21:54:00
6:54 PM,48.9,37.9,66,30.26,10.0,South,5.8,-,N/A,,Mostly Cloudy,170,2012-10-08 22:54:00
7:54 PM,46.0,39.0,76,30.27,10.0,Calm,Calm,-,N/A,,Clear,0,2012-10-08 23:54:00
8:54 PM,45.0,37.9,76,30.28,10.0,ESE,3.5,-,N/A,,Clear,120,2012-10-09 00:54:00
9:54 PM,43.0,37.0,80,30.29,10.0,ESE,3.5,-,N/A,,Clear,120,2012-10-09 01:54:00
10:54 PM,43.0,36.0,76,30.30,10.0,ESE,6.9,-,N/A,,Clear,120,2012-10-09 02:54:00
11:54 PM,41.0,36.0,82,30.29,10.0,ESE,5.8,-,N/A,,Clear,110,2012-10-09 03:54:00